Location: Carrigahorig
(53.0625°N, 8.1439°W)
Time: 22:19:46
(UTC+00:00)

SPOT 3 Rocket - Pass Details

Date: 15 May 2026
Orbit: 774 x 790 km, 98.5° (Epoch: 11 June)

Event Time Altitude Azimuth Distance (km) Brightness Sun altitude
Exits shadow 21:09:26 - 145° (SE) 2,604 5.6 -6.1°
Reaches altitude 10° 21:10:09 10° 143° (SE) 2,327 5.3 -6.1°
Maximum altitude 21:15:08 54° 67° (ENE) 946 3.9 -6.7°
Drops below altitude 10° 21:20:08 10° 352° (N) 2,337 6.9 -7.2°
Sets 21:22:29 0° 348° (NNW) 3,268 7.9 -7.4°
